AMX922 MMNL-MMLO

Flight info

Callsign AMX922
Flight time 1h 10m
Altitude 34000
Route NLD2B NLD UJ40 SLW/N0469F330 UJ31 SLP/N0468F340 UJ40 BJX
Aircraft B38M/M-SDE1FGHILORVWXY/HB1

Departure

Time 2026-05-08 16:13
Airport Quetzalcóatl International Airport (MMNL)

Arrival

Time 2026-05-08 17:24
Airport Guanajuato International Airport (MMLO)
Time Latitude Longitude Altitude Speed Heading
2026-05-08 15:49 27.44926 -99.56852 489 ft 0 kts 319°
2026-05-08 16:03 27.44927 -99.56852 492 ft 0 kts 319°
2026-05-08 16:03 27.44930 -99.56855 492 ft 1 kts 319°
2026-05-08 16:04 27.44936 -99.56861 496 ft 1 kts 319°
2026-05-08 16:04 27.44938 -99.56863 497 ft 0 kts 319°
2026-05-08 16:07 27.44940 -99.56865 498 ft 1 kts 319°
2026-05-08 16:07 27.44947 -99.56875 486 ft 2 kts 307°
2026-05-08 16:07 27.44956 -99.56893 486 ft 3 kts 288°
2026-05-08 16:08 27.44961 -99.56911 485 ft 0 kts 288°
2026-05-08 16:09 27.44962 -99.56912 485 ft 1 kts 288°
2026-05-08 16:10 27.44964 -99.56942 490 ft 11 kts 262°
2026-05-08 16:10 27.44905 -99.57061 490 ft 21 kts 229°
2026-05-08 16:10 27.44772 -99.57068 486 ft 20 kts 191°
2026-05-08 16:10 27.44611 -99.57089 487 ft 28 kts 182°
2026-05-08 16:11 27.44388 -99.57021 491 ft 41 kts 152°
2026-05-08 16:11 27.44112 -99.56833 488 ft 52 kts 150°
2026-05-08 16:11 27.43802 -99.56641 484 ft 31 kts 152°
2026-05-08 16:11 27.43659 -99.56558 486 ft 14 kts 150°
2026-05-08 16:12 27.43602 -99.56475 485 ft 14 kts 173°
2026-05-08 16:12 27.43584 -99.56524 485 ft 1 kts 330°
2026-05-08 16:12 27.43589 -99.56527 485 ft 1 kts 330°
2026-05-08 16:12 27.43608 -99.56539 486 ft 10 kts 330°
2026-05-08 16:13 27.43894 -99.56720 482 ft 88 kts 330°
2026-05-08 16:13 27.44657 -99.57196 484 ft 160 kts 331°
2026-05-08 16:13 27.45725 -99.57890 915 ft 183 kts 329°
2026-05-08 16:13 27.46833 -99.58563 1869 ft 180 kts 335°
2026-05-08 16:14 27.47997 -99.59134 2635 ft 186 kts 339°
2026-05-08 16:14 27.49263 -99.59619 3241 ft 198 kts 343°
2026-05-08 16:14 27.50608 -99.60020 3997 ft 198 kts 346°
2026-05-08 16:14 27.51881 -99.60578 4726 ft 201 kts 316°
2026-05-08 16:15 27.52505 -99.61910 5360 ft 196 kts 270°
2026-05-08 16:15 27.52103 -99.63368 5799 ft 206 kts 226°
2026-05-08 16:15 27.50904 -99.64276 6420 ft 215 kts 199°
2026-05-08 16:15 27.49387 -99.64679 6916 ft 234 kts 195°
2026-05-08 16:16 27.47869 -99.65522 7421 ft 253 kts 212°
2026-05-08 16:16 27.46303 -99.66608 7927 ft 272 kts 211°
2026-05-08 16:16 27.44690 -99.67701 8790 ft 276 kts 211°
2026-05-08 16:16 27.43017 -99.68817 9621 ft 282 kts 211°
2026-05-08 16:17 27.41304 -99.69950 10413 ft 287 kts 211°
2026-05-08 16:17 27.39566 -99.71094 11264 ft 288 kts 211°
2026-05-08 16:17 27.37828 -99.72230 12119 ft 290 kts 212°
2026-05-08 16:17 27.36074 -99.73376 12939 ft 292 kts 212°
2026-05-08 16:18 27.34333 -99.74511 13761 ft 293 kts 212°
2026-05-08 16:18 27.32560 -99.75667 14485 ft 295 kts 212°
2026-05-08 16:18 27.30780 -99.76827 15233 ft 296 kts 212°
2026-05-08 16:18 27.28996 -99.77988 15981 ft 297 kts 213°
2026-05-08 16:19 27.27207 -99.79151 16712 ft 297 kts 213°
2026-05-08 16:19 27.25414 -99.80317 17434 ft 298 kts 213°
2026-05-08 16:19 27.23617 -99.81484 18162 ft 299 kts 214°
2026-05-08 16:19 27.21808 -99.82657 18779 ft 300 kts 213°
2026-05-08 16:20 27.19993 -99.83835 19364 ft 302 kts 213°
2026-05-08 16:20 27.18163 -99.85022 19932 ft 304 kts 213°
2026-05-08 16:20 27.16320 -99.86218 20480 ft 306 kts 213°
2026-05-08 16:20 27.14470 -99.87417 21018 ft 308 kts 213°
2026-05-08 16:21 27.12626 -99.88612 21539 ft 311 kts 213°
2026-05-08 16:21 27.10744 -99.89831 22056 ft 313 kts 213°
2026-05-08 16:21 27.08851 -99.91057 22573 ft 315 kts 213°
2026-05-08 16:21 27.06943 -99.92290 23070 ft 317 kts 213°
2026-05-08 16:22 27.05021 -99.93533 23552 ft 320 kts 213°
2026-05-08 16:22 27.03086 -99.94785 23960 ft 322 kts 213°
2026-05-08 16:22 27.01145 -99.96039 24386 ft 322 kts 213°
2026-05-08 16:22 26.99196 -99.97298 24812 ft 323 kts 213°
2026-05-08 16:23 26.97231 -99.98568 25051 ft 332 kts 213°
2026-05-08 16:23 26.95189 -99.99900 25050 ft 346 kts 213°
2026-05-08 16:23 26.93093 -100.01268 25083 ft 359 kts 213°
2026-05-08 16:23 26.90894 -100.02703 25111 ft 372 kts 213°
2026-05-08 16:24 26.88620 -100.04185 25136 ft 384 kts 213°
2026-05-08 16:24 26.86275 -100.05712 25161 ft 396 kts 213°
2026-05-08 16:24 26.83861 -100.07281 25197 ft 406 kts 213°
2026-05-08 16:24 26.81386 -100.08889 25210 ft 415 kts 213°
2026-05-08 16:25 26.78862 -100.10525 25228 ft 424 kts 213°
2026-05-08 16:25 26.76289 -100.12191 25247 ft 431 kts 213°
2026-05-08 16:25 26.73666 -100.13885 25258 ft 438 kts 212°
2026-05-08 16:25 26.71026 -100.15588 25203 ft 446 kts 212°
2026-05-08 16:26 26.68329 -100.17317 25432 ft 445 kts 212°
2026-05-08 16:26 26.65673 -100.19011 25668 ft 444 kts 212°
2026-05-08 16:26 26.62991 -100.20720 25935 ft 443 kts 212°
2026-05-08 16:26 26.60311 -100.22426 26203 ft 442 kts 212°
2026-05-08 16:27 26.57637 -100.24127 26479 ft 441 kts 212°
2026-05-08 16:27 26.54971 -100.25822 26738 ft 440 kts 212°
2026-05-08 16:27 26.52319 -100.27508 27061 ft 438 kts 212°
2026-05-08 16:27 26.49702 -100.29170 27376 ft 437 kts 212°
2026-05-08 16:28 26.47060 -100.30847 27753 ft 435 kts 212°
2026-05-08 16:28 26.44433 -100.32515 28071 ft 434 kts 212°
2026-05-08 16:28 26.41799 -100.34187 28417 ft 433 kts 212°
2026-05-08 16:28 26.39181 -100.35847 28760 ft 432 kts 212°
2026-05-08 16:29 26.36574 -100.37501 29107 ft 430 kts 212°
2026-05-08 16:29 26.33974 -100.39149 29475 ft 429 kts 212°
2026-05-08 16:29 26.31384 -100.40791 29845 ft 427 kts 212°
2026-05-08 16:29 26.28834 -100.42407 30168 ft 426 kts 212°
2026-05-08 16:30 26.26265 -100.44034 30468 ft 425 kts 212°
2026-05-08 16:30 26.23694 -100.45662 30745 ft 424 kts 212°
2026-05-08 16:30 26.21132 -100.47285 31076 ft 423 kts 213°
2026-05-08 16:30 26.18566 -100.48909 31394 ft 422 kts 213°
2026-05-08 16:31 26.16011 -100.50526 31713 ft 421 kts 213°
2026-05-08 16:31 26.13466 -100.52136 32028 ft 419 kts 213°
2026-05-08 16:31 26.10965 -100.53716 32285 ft 418 kts 213°
2026-05-08 16:31 26.08408 -100.55332 32578 ft 418 kts 213°
2026-05-08 16:32 26.05909 -100.56911 32885 ft 417 kts 213°
2026-05-08 16:32 26.03385 -100.58506 33205 ft 416 kts 213°
2026-05-08 16:32 26.00904 -100.60139 33509 ft 413 kts 216°
2026-05-08 16:32 25.98490 -100.61875 33828 ft 412 kts 216°
2026-05-08 16:33 25.96088 -100.63585 33939 ft 413 kts 216°
2026-05-08 16:33 25.93825 -100.65188 33935 ft 410 kts 216°
2026-05-08 16:33 25.89038 -100.68569 33936 ft 410 kts 216°
2026-05-08 16:34 25.84214 -100.71988 33960 ft 411 kts 216°
2026-05-08 16:34 25.79387 -100.75420 33987 ft 411 kts 216°
2026-05-08 16:35 25.74587 -100.78829 34030 ft 412 kts 216°
2026-05-08 16:35 25.69760 -100.82254 34074 ft 412 kts 216°
2026-05-08 16:36 25.64919 -100.85685 34114 ft 413 kts 216°
2026-05-08 16:36 25.60064 -100.89124 34140 ft 413 kts 216°
2026-05-08 16:37 25.55081 -100.92250 34118 ft 419 kts 201°
2026-05-08 16:37 25.52168 -100.92769 34143 ft 430 kts 188°
2026-05-08 16:37 25.49166 -100.92861 34131 ft 433 kts 188°
2026-05-08 16:38 25.43125 -100.92961 34115 ft 435 kts 187°
2026-05-08 16:38 25.37066 -100.92984 34088 ft 435 kts 186°
2026-05-08 16:39 25.30992 -100.92988 34037 ft 436 kts 186°
2026-05-08 16:39 25.24964 -100.92990 34033 ft 436 kts 186°
2026-05-08 16:40 25.18876 -100.92992 34010 ft 437 kts 186°
2026-05-08 16:40 25.12784 -100.92994 34016 ft 437 kts 186°
2026-05-08 16:41 25.06731 -100.92996 34023 ft 438 kts 186°
2026-05-08 16:42 24.97575 -100.92999 34032 ft 438 kts 186°
2026-05-08 16:42 24.91459 -100.92997 34033 ft 439 kts 186°
2026-05-08 16:43 24.85348 -100.92995 34028 ft 439 kts 186°
2026-05-08 16:43 24.79218 -100.92996 34027 ft 440 kts 186°
2026-05-08 16:44 24.73093 -100.92998 34019 ft 440 kts 185°
2026-05-08 16:44 24.66990 -100.93000 34027 ft 441 kts 185°
2026-05-08 16:45 24.60836 -100.93002 34028 ft 442 kts 185°
2026-05-08 16:45 24.54681 -100.93003 34023 ft 442 kts 185°
2026-05-08 16:46 24.48516 -100.93005 34021 ft 442 kts 185°
2026-05-08 16:46 24.42440 -100.93007 34022 ft 442 kts 185°
2026-05-08 16:47 24.36279 -100.93009 34025 ft 443 kts 185°
2026-05-08 16:47 24.30100 -100.93011 34029 ft 444 kts 185°
2026-05-08 16:48 24.23923 -100.93013 34019 ft 444 kts 185°
2026-05-08 16:48 24.17736 -100.93015 34015 ft 445 kts 185°
2026-05-08 16:49 24.11547 -100.93017 34016 ft 445 kts 185°
2026-05-08 16:49 24.05351 -100.93019 34020 ft 445 kts 185°
2026-05-08 16:50 23.99188 -100.93020 34006 ft 446 kts 185°
2026-05-08 16:50 23.92977 -100.93023 34015 ft 446 kts 185°
2026-05-08 16:51 23.86753 -100.93024 34002 ft 447 kts 185°
2026-05-08 16:51 23.80534 -100.93027 34000 ft 447 kts 185°
2026-05-08 16:52 23.74303 -100.93022 33991 ft 448 kts 185°
2026-05-08 16:52 23.68063 -100.93016 33987 ft 448 kts 185°
2026-05-08 16:53 23.58743 -100.93007 33976 ft 449 kts 185°
2026-05-08 16:53 23.54214 -100.93003 33972 ft 449 kts 184°
2026-05-08 16:54 23.47955 -100.93001 33967 ft 450 kts 184°
2026-05-08 16:54 23.43766 -100.93001 33960 ft 450 kts 184°
2026-05-08 16:55 23.37737 -100.93001 33953 ft 450 kts 184°
2026-05-08 16:55 23.31468 -100.93000 33947 ft 451 kts 184°
2026-05-08 16:56 23.26250 -100.93000 33941 ft 451 kts 184°
2026-05-08 16:56 23.19970 -100.93000 33933 ft 451 kts 184°
2026-05-08 16:57 23.15359 -100.93000 33924 ft 452 kts 184°
2026-05-08 16:57 23.09061 -100.93003 33917 ft 452 kts 184°
2026-05-08 16:58 23.02804 -100.93007 33902 ft 451 kts 184°
2026-05-08 16:58 22.96495 -100.93011 33894 ft 453 kts 184°
2026-05-08 16:59 22.90193 -100.93014 33885 ft 453 kts 184°
2026-05-08 16:59 22.83881 -100.93018 33868 ft 453 kts 184°
2026-05-08 17:00 22.77567 -100.93021 33863 ft 453 kts 184°
2026-05-08 17:00 22.71295 -100.93025 33850 ft 453 kts 184°
2026-05-08 17:01 22.64987 -100.93028 33842 ft 453 kts 184°
2026-05-08 17:01 22.58674 -100.93030 33870 ft 453 kts 184°
2026-05-08 17:02 22.52361 -100.93032 33966 ft 453 kts 184°
2026-05-08 17:02 22.46051 -100.93035 34061 ft 453 kts 184°
2026-05-08 17:03 22.39774 -100.93037 34163 ft 453 kts 184°
2026-05-08 17:03 22.33463 -100.93039 34256 ft 453 kts 184°
2026-05-08 17:04 22.27146 -100.93092 34245 ft 450 kts 189°
2026-05-08 17:04 22.24136 -100.93835 34236 ft 441 kts 204°
2026-05-08 17:04 22.21271 -100.95050 34235 ft 443 kts 204°
2026-05-08 17:05 22.15580 -100.97501 34213 ft 443 kts 204°
2026-05-08 17:05 22.10166 -100.99883 34111 ft 443 kts 205°
2026-05-08 17:06 22.04742 -101.02276 34025 ft 442 kts 204°
2026-05-08 17:06 21.99195 -101.04721 33929 ft 432 kts 204°
2026-05-08 17:07 21.93641 -101.07169 33824 ft 431 kts 205°
2026-05-08 17:07 21.88090 -101.09613 33798 ft 431 kts 205°
2026-05-08 17:08 21.82569 -101.12047 33797 ft 431 kts 205°
2026-05-08 17:08 21.77010 -101.14496 33804 ft 431 kts 204°
2026-05-08 17:09 21.71458 -101.16939 33805 ft 431 kts 204°
2026-05-08 17:09 21.65907 -101.19381 33813 ft 431 kts 204°
2026-05-08 17:10 21.60142 -101.21115 33810 ft 435 kts 187°
2026-05-08 17:10 21.54098 -101.21753 33814 ft 437 kts 189°
2026-05-08 17:11 21.48060 -101.22352 33814 ft 437 kts 188°
2026-05-08 17:11 21.42023 -101.22931 33402 ft 428 kts 188°
2026-05-08 17:12 21.39097 -101.23211 32193 ft 432 kts 188°
2026-05-08 17:12 21.36101 -101.23498 31054 ft 435 kts 187°
2026-05-08 17:12 21.33074 -101.23787 29957 ft 436 kts 187°
2026-05-08 17:12 21.30047 -101.24078 28665 ft 438 kts 187°
2026-05-08 17:13 21.27002 -101.24369 27322 ft 441 kts 187°
2026-05-08 17:13 21.23936 -101.24663 25999 ft 444 kts 186°
2026-05-08 17:13 21.20843 -101.24959 24688 ft 448 kts 186°
2026-05-08 17:13 21.17728 -101.25257 23512 ft 449 kts 186°
2026-05-08 17:14 21.14668 -101.25548 22378 ft 444 kts 186°
2026-05-08 17:14 21.11572 -101.25844 21339 ft 438 kts 186°
2026-05-08 17:14 21.08554 -101.26132 20377 ft 432 kts 186°
2026-05-08 17:14 21.05619 -101.26412 19421 ft 426 kts 186°
2026-05-08 17:15 21.02729 -101.26687 18525 ft 421 kts 186°
2026-05-08 17:15 20.99828 -101.26963 17554 ft 416 kts 185°
2026-05-08 17:15 20.96969 -101.27236 16709 ft 409 kts 185°
2026-05-08 17:15 20.94163 -101.27558 15888 ft 402 kts 192°
2026-05-08 17:16 20.91587 -101.28605 15177 ft 394 kts 211°
2026-05-08 17:16 20.89525 -101.30475 14588 ft 387 kts 229°
2026-05-08 17:16 20.87777 -101.32616 13985 ft 378 kts 220°
2026-05-08 17:16 20.85587 -101.34068 13488 ft 366 kts 200°
2026-05-08 17:17 20.83145 -101.34584 13086 ft 353 kts 179°
2026-05-08 17:17 20.80787 -101.34123 12760 ft 340 kts 158°
2026-05-08 17:17 20.78822 -101.32812 12467 ft 328 kts 139°
2026-05-08 17:17 20.77467 -101.30933 12103 ft 317 kts 111°
2026-05-08 17:18 20.77164 -101.28680 11851 ft 302 kts 81°
2026-05-08 17:18 20.77941 -101.26686 11635 ft 287 kts 49°
2026-05-08 17:18 20.79488 -101.25515 11455 ft 270 kts 15°
2026-05-08 17:18 20.81293 -101.25420 11317 ft 253 kts 350°
2026-05-08 17:19 20.82985 -101.25755 11104 ft 242 kts 349°
2026-05-08 17:19 20.84592 -101.26161 10863 ft 232 kts 334°
2026-05-08 17:19 20.85687 -101.27256 10745 ft 206 kts 292°
2026-05-08 17:19 20.86024 -101.28631 10570 ft 188 kts 286°
2026-05-08 17:20 20.86478 -101.29947 10144 ft 189 kts 294°
2026-05-08 17:20 20.87037 -101.31225 10045 ft 191 kts 300°
2026-05-08 17:20 20.87740 -101.32439 10042 ft 193 kts 302°
2026-05-08 17:20 20.88445 -101.33647 9776 ft 189 kts 302°
2026-05-08 17:21 20.89120 -101.34823 9396 ft 182 kts 301°
2026-05-08 17:21 20.89772 -101.35972 9055 ft 179 kts 300°
2026-05-08 17:21 20.90414 -101.37122 8585 ft 183 kts 301°
2026-05-08 17:21 20.91097 -101.38336 7776 ft 201 kts 301°
2026-05-08 17:22 20.91854 -101.39691 7256 ft 220 kts 300°
2026-05-08 17:22 20.92818 -101.41013 6169 ft 226 kts 313°
2026-05-08 17:22 20.93880 -101.42114 6005 ft 201 kts 311°
2026-05-08 17:22 20.94718 -101.43043 6002 ft 172 kts 312°
2026-05-08 17:23 20.95469 -101.43860 5995 ft 160 kts 313°
2026-05-08 17:23 20.96222 -101.44671 6212 ft 153 kts 313°
2026-05-08 17:23 20.96968 -101.45548 6142 ft 162 kts 310°
2026-05-08 17:23 20.97752 -101.46456 6066 ft 166 kts 309°
2026-05-08 17:24 20.98575 -101.47271 5921 ft 141 kts 324°
2026-05-08 17:24 20.99028 -101.47604 5928 ft 29 kts 316°
2026-05-08 17:24 20.99086 -101.47680 5931 ft 7 kts 304°
2026-05-08 17:24 20.99121 -101.47755 5929 ft 16 kts 279°
2026-05-08 17:25 20.99056 -101.47867 5932 ft 27 kts 170°
2026-05-08 17:25 20.98842 -101.47800 5929 ft 22 kts 162°
2026-05-08 17:25 20.98705 -101.47813 5928 ft 14 kts 183°
2026-05-08 17:25 20.98664 -101.47832 5927 ft 1 kts 218°
2026-05-08 17:26 20.98663 -101.47833 5927 ft 0 kts 221°
2026-05-08 17:26 20.98657 -101.47842 5927 ft 0 kts 230°